• In France
  • List of Countries
  • For 7 days
  • Water Temperature
  • Satellite Maps
  • Weather Map
  • Weather Widgets
  • user-avatar
    Login

    Hourly Weather Cimguda

    Today, 19 October, Friday

    Time Temperature Precipitation Wind Pressure Humidity
    00:00 +4°C° 0 mm 1 mps 585 mmHg 56%
    01:00 +4°C° 0 mm 1 mps 585 mmHg 57%
    02:00 +4°C° 0 mm 1 mps 585 mmHg 57%
    03:00 +3°C° 0 mm 1 mps 584 mmHg 56%
    04:00 +3°C° 0 mm 1 mps 584 mmHg 57%
    05:00 +3°C° 0 mm 1 mps 584 mmHg 57%
    06:00 +3°C° 0 mm 1 mps 584 mmHg 58%
    07:00 +5°C° 0 mm 1 mps 585 mmHg 53%
    08:00 +7°C° 0 mm 1 mps 586 mmHg 49%
    09:00 +9°C° 0 mm 1 mps 587 mmHg 44%
    10:00 +10°C° 0 mm 1 mps 588 mmHg 42%
    11:00 +11°C° 0 mm 1 mps 588 mmHg 41%
    12:00 +12°C° 0 mm 2 mps 588 mmHg 39%
    13:00 +12°C° 0 mm 2 mps 588 mmHg 41%
    14:00 +12°C° 0 mm 2 mps 588 mmHg 43%
    15:00 +12°C° 0 mm 1 mps 587 mmHg 46%
    16:00 +10°C° 0 mm 1 mps 586 mmHg 55%
    17:00 +8°C° 0 mm 1 mps 586 mmHg 65%
    18:00 +6°C° 0 mm 1 mps 585 mmHg 75%
    19:00 +5°C° 0 mm 1 mps 585 mmHg 75%
    20:00 +5°C° 0 mm 1 mps 584 mmHg 76%
    21:00 +5°C° 0 mm 1 mps 584 mmHg 77%
    22:00 +4°C° 0 mm 2 mps 584 mmHg 79%
    23:00 +4°C° 0 mm 2 mps 584 mmHg 80%

    Tomorrow, 20 October, Saturday

    Time Temperature Precipitation Wind Pressure Humidity
    00:00 +4°C° 0 mm 2 mps 584 mmHg 82%
    01:00 +3°C° 0 mm 2 mps 584 mmHg 81%
    02:00 +3°C° 0 mm 2 mps 583 mmHg 80%
    03:00 +3°C° 0 mm 2 mps 583 mmHg 79%
    04:00 +2°C° 0 mm 2 mps 583 mmHg 73%
    05:00 +2°C° 0 mm 2 mps 583 mmHg 68%
    06:00 +2°C° 0 mm 2 mps 582 mmHg 62%
    07:00 +4°C° 0 mm 2 mps 583 mmHg 52%
    08:00 +8°C° 0 mm 1 mps 585 mmHg 43%
    09:00 +10°C° 0 mm 1 mps 586 mmHg 33%
    10:00 +10°C° 0 mm 2 mps 586 mmHg 33%
    11:00 +12°C° 0 mm 2 mps 586 mmHg 32%
    12:00 +13°C° 0 mm 2 mps 586 mmHg 31%
    13:00 +13°C° 0 mm 2 mps 586 mmHg 33%
    14:00 +13°C° 0 mm 2 mps 586 mmHg 35%
    15:00 +12°C° 0 mm 2 mps 585 mmHg 37%
    16:00 +10°C° 0 mm 1 mps 584 mmHg 44%
    17:00 +8°C° 0 mm 1 mps 584 mmHg 52%
    18:00 +6°C° 0 mm 1 mps 583 mmHg 60%
    19:00 +6°C° 0 mm 1 mps 583 mmHg 59%
    20:00 +6°C° 0 mm 1 mps 583 mmHg 59%
    21:00 +6°C° 0 mm 1 mps 583 mmHg 59%
    22:00 +6°C° 0 mm 1 mps 582 mmHg 59%
    23:00 +5°C° 0 mm 1 mps 582 mmHg 59%

    Day after tomorrow, 21 October, Sunday

    Time Temperature Precipitation Wind Pressure Humidity
    00:00 +5°C° 0 mm 1 mps 582 mmHg 59%
    01:00 +5°C° 0 mm 1 mps 582 mmHg 58%
    02:00 +5°C° 0 mm 1 mps 582 mmHg 58%
    03:00 +5°C° 0 mm 1 mps 582 mmHg 58%
    04:00 +5°C° 0 mm 1 mps 582 mmHg 55%
    05:00 +5°C° 0 mm 1 mps 582 mmHg 53%
    06:00 +5°C° 0 mm 1 mps 582 mmHg 50%
    07:00 +7°C° 0 mm 1 mps 583 mmHg 46%
    08:00 +9°C° 0 mm 1 mps 584 mmHg 41%
    09:00 +11°C° 0 mm 1 mps 585 mmHg 37%
    10:00 +12°C° 0 mm 1 mps 585 mmHg 37%
    11:00 +12°C° 0 mm 1 mps 586 mmHg 38%
    12:00 +13°C° 0 mm 2 mps 586 mmHg 38%
    13:00 +13°C° 0 mm 2 mps 586 mmHg 40%
    14:00 +13°C° 0 mm 2 mps 585 mmHg 42%
    15:00 +13°C° 0 mm 2 mps 585 mmHg 44%
    16:00 +11°C° 0 mm 1 mps 584 mmHg 51%
    17:00 +9°C° 0 mm 1 mps 583 mmHg 58%
    18:00 +7°C° 0 mm 1 mps 583 mmHg 66%
    19:00 +7°C° 0 mm 1 mps 583 mmHg 65%
    20:00 +7°C° 0 mm 1 mps 583 mmHg 64%
    21:00 +7°C° 0 mm 1 mps 583 mmHg 63%
    22:00 +6°C° 0 mm 1 mps 583 mmHg 62%
    23:00 +6°C° 0 mm 1 mps 583 mmHg 61%

    22 October, Monday

    Time Temperature Precipitation Wind Pressure Humidity
    00:00 +5°C° 0 mm 2 mps 582 mmHg 60%
    01:00 +5°C° 0 mm 2 mps 582 mmHg 59%
    02:00 +5°C° 0 mm 2 mps 582 mmHg 59%
    03:00 +5°C° 0 mm 2 mps 582 mmHg 58%
    04:00 +5°C° 0 mm 2 mps 582 mmHg 58%
    05:00 +5°C° 0 mm 2 mps 582 mmHg 59%
    06:00 +5°C° 0 mm 2 mps 582 mmHg 59%
    07:00 +6°C° 0 mm 2 mps 583 mmHg 55%
    08:00 +8°C° 0 mm 2 mps 584 mmHg 51%
    09:00 +9°C° 0 mm 2 mps 585 mmHg 47%
    10:00 +10°C° 0 mm 2 mps 586 mmHg 46%
    11:00 +12°C° 0 mm 2 mps 586 mmHg 44%
    12:00 +13°C° 0 mm 2 mps 586 mmHg 43%
    13:00 +13°C° 0 mm 2 mps 586 mmHg 45%
    14:00 +12°C° 0 mm 2 mps 586 mmHg 47%
    15:00 +12°C° 0 mm 2 mps 585 mmHg 49%
    16:00 +9°C° 0 mm 2 mps 585 mmHg 57%
    17:00 +9°C° 0 mm 1 mps 584 mmHg 64%
    18:00 +7°C° 0 mm 1 mps 584 mmHg 71%
    19:00 +7°C° 0 mm 1 mps 584 mmHg 72%
    20:00 +6°C° 0 mm 1 mps 584 mmHg 74%
    21:00 +6°C° 0 mm 1 mps 584 mmHg 75%
    22:00 +6°C° 0 mm 1 mps 584 mmHg 73%
    23:00 +6°C° 0 mm 1 mps 583 mmHg 71%

    23 October, Tuesday

    Time Temperature Precipitation Wind Pressure Humidity
    00:00 +5°C° 0 mm 1 mps 583 mmHg 69%
    01:00 +5°C° 0 mm 1 mps 583 mmHg 66%
    02:00 +5°C° 0 mm 1 mps 583 mmHg 64%
    03:00 +5°C° 0 mm 1 mps 583 mmHg 61%
    04:00 +5°C° 0 mm 1 mps 583 mmHg 62%
    05:00 +5°C° 0 mm 1 mps 583 mmHg 62%
    06:00 +5°C° 0 mm 1 mps 583 mmHg 63%
    07:00 +5°C° 0 mm 2 mps 584 mmHg 61%
    08:00 +7°C° 0 mm 2 mps 585 mmHg 59%
    09:00 +9°C° 0 mm 2 mps 586 mmHg 57%
    10:00 +10°C° 0 mm 2 mps 586 mmHg 55%
    11:00 +12°C° 0 mm 2 mps 586 mmHg 52%
    12:00 +12°C° 0 mm 2 mps 586 mmHg 50%
    13:00 +12°C° 0 mm 2 mps 586 mmHg 49%
    14:00 +12°C° 0 mm 2 mps 585 mmHg 49%
    15:00 +12°C° 0 mm 2 mps 585 mmHg 48%
    16:00 +9°C° 0 mm 2 mps 584 mmHg 54%
    17:00 +9°C° 0 mm 1 mps 584 mmHg 60%
    18:00 +7°C° 0 mm 1 mps 583 mmHg 65%
    19:00 +7°C° 0 mm 1 mps 583 mmHg 62%
    20:00 +7°C° 0 mm 1 mps 583 mmHg 60%
    21:00 +7°C° 0 mm 1 mps 583 mmHg 57%
    22:00 +7°C° 0 mm 1 mps 583 mmHg 56%
    23:00 +6°C° 0 mm 2 mps 582 mmHg 56%

    24 October, Wednesday

    Time Temperature Precipitation Wind Pressure Humidity
    00:00 +5°C° 0 mm 2 mps 582 mmHg 55%
    01:00 +5°C° 0 mm 2 mps 582 mmHg 58%
    02:00 +5°C° 0 mm 2 mps 582 mmHg 61%
    03:00 +5°C° 0 mm 2 mps 581 mmHg 65%
    04:00 +5°C° 0 mm 2 mps 581 mmHg 67%
    05:00 +4°C° 0 mm 2 mps 581 mmHg 70%
    06:00 +4°C° 0 mm 2 mps 581 mmHg 73%
    07:00 +6°C° 0 mm 2 mps 582 mmHg 67%
    08:00 +8°C° 0 mm 2 mps 583 mmHg 62%
    09:00 +9°C° 0 mm 2 mps 583 mmHg 56%
    10:00 +10°C° 0 mm 2 mps 583 mmHg 53%
    11:00 +12°C° 0 mm 2 mps 583 mmHg 50%
    12:00 +12°C° 0 mm 3 mps 583 mmHg 46%
    13:00 +13°C° 0 mm 2 mps 583 mmHg 46%
    14:00 +13°C° 0 mm 2 mps 582 mmHg 46%
    15:00 +13°C° 0 mm 2 mps 582 mmHg 45%
    16:00 +10°C° 0 mm 2 mps 581 mmHg 50%
    17:00 +8°C° 0 mm 2 mps 580 mmHg 55%
    18:00 +7°C° 0 mm 2 mps 579 mmHg 60%
    19:00 +7°C° 0.1 mm 2 mps 579 mmHg 61%
    20:00 +7°C° 0.1 mm 3 mps 579 mmHg 62%
    21:00 +5°C° 0.1 mm 3 mps 578 mmHg 63%
    22:00 +5°C° 0.3 mm 3 mps 578 mmHg 67%
    23:00 +5°C° 0.3 mm 3 mps 577 mmHg 71%
    Show more